• In Hungary
  • List of Countries
  • For 7 days
  • Water Temperature
  • Satellite Maps
  • Weather Map
  • News
  • Weather Widgets
  • user-avatar
    Login

    Hourly Weather Akis

    Today, 19 July, Thursday

    Time Temperature Precipitation Wind Pressure Humidity
    00:00 +11°C° 0 mm 1 mps 759 mmHg 81%
    01:00 +11°C° 0 mm 1 mps 759 mmHg 84%
    02:00 +11°C° 0 mm 1 mps 759 mmHg 84%
    03:00 +11°C° 0 mm 1 mps 759 mmHg 83%
    04:00 +10°C° 0 mm 2 mps 759 mmHg 84%
    05:00 +13°C° 0 mm 2 mps 759 mmHg 78%
    06:00 +14°C° 0 mm 2 mps 759 mmHg 72%
    07:00 +16°C° 0 mm 2 mps 759 mmHg 67%
    08:00 +17°C° 0 mm 2 mps 759 mmHg 62%
    09:00 +19°C° 0 mm 2 mps 759 mmHg 58%
    10:00 +21°C° 0 mm 3 mps 759 mmHg 54%
    11:00 +21°C° 0 mm 3 mps 759 mmHg 52%
    12:00 +22°C° 0 mm 3 mps 759 mmHg 50%
    13:00 +24°C° 0 mm 3 mps 759 mmHg 48%
    14:00 +24°C° 0 mm 3 mps 759 mmHg 49%
    15:00 +24°C° 0 mm 3 mps 759 mmHg 50%
    16:00 +24°C° 0 mm 3 mps 759 mmHg 50%
    17:00 +22°C° 0 mm 3 mps 759 mmHg 52%
    18:00 +22°C° 0 mm 3 mps 759 mmHg 54%
    19:00 +21°C° 0 mm 3 mps 759 mmHg 56%
    20:00 +20°C° 0 mm 2 mps 759 mmHg 63%
    21:00 +18°C° 0 mm 2 mps 759 mmHg 71%
    22:00 +16°C° 0 mm 2 mps 759 mmHg 78%
    23:00 +15°C° 0 mm 2 mps 760 mmHg 82%

    Tomorrow, 20 July, Friday

    Time Temperature Precipitation Wind Pressure Humidity
    00:00 +14°C° 0 mm 2 mps 760 mmHg 85%
    01:00 +13°C° 0 mm 1 mps 760 mmHg 88%
    02:00 +13°C° 0 mm 1 mps 760 mmHg 88%
    03:00 +13°C° 0 mm 1 mps 761 mmHg 88%
    04:00 +13°C° 0 mm 1 mps 761 mmHg 89%
    05:00 +15°C° 0 mm 2 mps 761 mmHg 81%
    06:00 +16°C° 0 mm 2 mps 761 mmHg 73%
    07:00 +18°C° 0 mm 2 mps 761 mmHg 65%
    08:00 +19°C° 0 mm 2 mps 761 mmHg 59%
    09:00 +20°C° 0 mm 3 mps 761 mmHg 53%
    10:00 +22°C° 0 mm 3 mps 761 mmHg 48%
    11:00 +24°C° 0 mm 3 mps 761 mmHg 44%
    12:00 +24°C° 0 mm 3 mps 761 mmHg 41%
    13:00 +25°C° 0 mm 3 mps 761 mmHg 37%
    14:00 +26°C° 0 mm 3 mps 761 mmHg 36%
    15:00 +26°C° 0 mm 3 mps 761 mmHg 35%
    16:00 +26°C° 0 mm 3 mps 761 mmHg 34%
    17:00 +26°C° 0 mm 3 mps 761 mmHg 36%
    18:00 +25°C° 0 mm 3 mps 761 mmHg 39%
    19:00 +25°C° 0 mm 3 mps 761 mmHg 41%
    20:00 +22°C° 0 mm 3 mps 761 mmHg 47%
    21:00 +19°C° 0 mm 2 mps 761 mmHg 53%
    22:00 +17°C° 0 mm 2 mps 761 mmHg 59%
    23:00 +16°C° 0 mm 2 mps 761 mmHg 61%

    Day after tomorrow, 21 July, Saturday

    Time Temperature Precipitation Wind Pressure Humidity
    00:00 +15°C° 0 mm 2 mps 761 mmHg 62%
    01:00 +14°C° 0 mm 2 mps 761 mmHg 64%
    02:00 +14°C° 0 mm 2 mps 762 mmHg 67%
    03:00 +14°C° 0 mm 2 mps 762 mmHg 69%
    04:00 +14°C° 0 mm 2 mps 762 mmHg 72%
    05:00 +16°C° 0 mm 2 mps 762 mmHg 67%
    06:00 +18°C° 0 mm 2 mps 762 mmHg 62%
    07:00 +20°C° 0 mm 2 mps 762 mmHg 57%
    08:00 +23°C° 0 mm 2 mps 762 mmHg 52%
    09:00 +24°C° 0 mm 2 mps 762 mmHg 47%
    10:00 +26°C° 0 mm 2 mps 762 mmHg 42%
    11:00 +27°C° 0 mm 2 mps 761 mmHg 39%
    12:00 +28°C° 0 mm 2 mps 761 mmHg 37%
    13:00 +28°C° 0 mm 2 mps 761 mmHg 34%
    14:00 +29°C° 0 mm 2 mps 761 mmHg 34%
    15:00 +29°C° 0 mm 2 mps 760 mmHg 33%
    16:00 +29°C° 0 mm 3 mps 760 mmHg 33%
    17:00 +28°C° 0 mm 2 mps 760 mmHg 36%
    18:00 +28°C° 0 mm 2 mps 760 mmHg 38%
    19:00 +28°C° 0 mm 2 mps 760 mmHg 41%
    20:00 +25°C° 0 mm 2 mps 760 mmHg 47%
    21:00 +23°C° 0 mm 1 mps 760 mmHg 53%
    22:00 +20°C° 0 mm 1 mps 760 mmHg 60%
    23:00 +19°C° 0 mm 2 mps 760 mmHg 61%

    22 July, Sunday

    Time Temperature Precipitation Wind Pressure Humidity
    00:00 +18°C° 0 mm 2 mps 760 mmHg 62%
    01:00 +17°C° 0 mm 2 mps 760 mmHg 63%
    02:00 +17°C° 0 mm 2 mps 760 mmHg 64%
    03:00 +16°C° 0 mm 2 mps 761 mmHg 66%
    04:00 +16°C° 0 mm 2 mps 761 mmHg 67%
    05:00 +18°C° 0 mm 2 mps 761 mmHg 62%
    06:00 +19°C° 0 mm 2 mps 760 mmHg 57%
    07:00 +21°C° 0 mm 3 mps 760 mmHg 52%
    08:00 +24°C° 0 mm 3 mps 760 mmHg 46%
    09:00 +25°C° 0 mm 3 mps 760 mmHg 40%
    10:00 +27°C° 0 mm 4 mps 760 mmHg 34%
    11:00 +28°C° 0 mm 4 mps 759 mmHg 32%
    12:00 +28°C° 0 mm 4 mps 759 mmHg 30%
    13:00 +29°C° 0 mm 4 mps 759 mmHg 28%
    14:00 +29°C° 0 mm 4 mps 759 mmHg 28%
    15:00 +30°C° 0 mm 3 mps 758 mmHg 27%
    16:00 +30°C° 0 mm 3 mps 758 mmHg 27%
    17:00 +29°C° 0 mm 3 mps 758 mmHg 30%
    18:00 +29°C° 0 mm 2 mps 758 mmHg 34%
    19:00 +28°C° 0 mm 2 mps 757 mmHg 37%
    20:00 +26°C° 0 mm 2 mps 757 mmHg 42%
    21:00 +23°C° 0 mm 2 mps 757 mmHg 47%
    22:00 +20°C° 0 mm 2 mps 757 mmHg 52%
    23:00 +19°C° 0 mm 2 mps 758 mmHg 54%

    23 July, Monday

    Time Temperature Precipitation Wind Pressure Humidity
    00:00 +18°C° 0 mm 2 mps 758 mmHg 57%
    01:00 +17°C° 0 mm 2 mps 758 mmHg 59%
    02:00 +17°C° 0 mm 2 mps 758 mmHg 60%
    03:00 +17°C° 0 mm 2 mps 758 mmHg 61%
    04:00 +16°C° 0 mm 2 mps 758 mmHg 62%
    05:00 +18°C° 0 mm 2 mps 758 mmHg 57%
    06:00 +20°C° 0 mm 2 mps 758 mmHg 52%
    07:00 +23°C° 0 mm 2 mps 759 mmHg 47%
    08:00 +24°C° 0 mm 3 mps 758 mmHg 42%
    09:00 +26°C° 0 mm 3 mps 758 mmHg 36%
    10:00 +28°C° 0 mm 3 mps 758 mmHg 31%
    11:00 +28°C° 0 mm 3 mps 758 mmHg 29%
    12:00 +29°C° 0 mm 4 mps 758 mmHg 27%
    13:00 +30°C° 0 mm 4 mps 757 mmHg 25%
    14:00 +30°C° 0 mm 4 mps 757 mmHg 25%
    15:00 +32°C° 0 mm 4 mps 757 mmHg 24%
    16:00 +32°C° 0 mm 4 mps 757 mmHg 24%
    17:00 +30°C° 0 mm 3 mps 757 mmHg 28%
    18:00 +29°C° 0 mm 2 mps 756 mmHg 31%
    19:00 +29°C° 0 mm 2 mps 756 mmHg 35%
    20:00 +26°C° 0 mm 2 mps 756 mmHg 40%
    21:00 +24°C° 0 mm 2 mps 756 mmHg 45%
    22:00 +21°C° 0 mm 2 mps 757 mmHg 51%
    23:00 +20°C° 0 mm 2 mps 757 mmHg 53%

    24 July, Tuesday

    Time Temperature Precipitation Wind Pressure Humidity
    00:00 +19°C° 0 mm 2 mps 757 mmHg 55%
    01:00 +18°C° 0 mm 2 mps 757 mmHg 57%
    02:00 +18°C° 0 mm 2 mps 757 mmHg 59%
    03:00 +18°C° 0 mm 2 mps 757 mmHg 61%
    04:00 +17°C° 0 mm 2 mps 757 mmHg 62%
    05:00 +19°C° 0 mm 2 mps 757 mmHg 58%
    06:00 +21°C° 0 mm 2 mps 757 mmHg 53%
    07:00 +24°C° 0 mm 2 mps 758 mmHg 49%
    08:00 +25°C° 0 mm 3 mps 757 mmHg 43%
    09:00 +27°C° 0 mm 3 mps 757 mmHg 38%
    10:00 +29°C° 0 mm 3 mps 757 mmHg 32%
    11:00 +30°C° 0 mm 3 mps 757 mmHg 30%
    12:00 +32°C° 0 mm 4 mps 757 mmHg 28%
    13:00 +32°C° 0 mm 4 mps 757 mmHg 26%
    14:00 +33°C° 0 mm 4 mps 757 mmHg 25%
    15:00 +33°C° 0 mm 4 mps 757 mmHg 25%
    16:00 +33°C° 0 mm 3 mps 757 mmHg 24%
    17:00 +31°C° 0 mm 3 mps 756 mmHg 28%
    18:00 +31°C° 0 mm 2 mps 756 mmHg 32%
    19:00 +30°C° 0 mm 2 mps 756 mmHg 35%
    20:00 +27°C° 0 mm 2 mps 756 mmHg 40%
    21:00 +25°C° 0 mm 2 mps 756 mmHg 44%
    22:00 +21°C° 0 mm 2 mps 757 mmHg 49%
    23:00 +21°C° 0 mm 2 mps 757 mmHg 51%
    Show more